Hastings, NE

5:44 AM CDT on July 25, 2016 (GMT -0500)
Hastings Municipal

Weather History for KHSI - July, 2013

Change the Weather History Date:

Saturday, July 20, 2013

  Actual Average Record
Temperature  
Mean Temperature 74 °F 78 °F  
Max Temperature 83 °F 88 °F 110 °F (1934)
Min Temperature 65 °F 67 °F 50 °F (1915)
Degree Days  
Heating Degree Days 0 0  
Month to date heating degree days 0 0  
Since 1 June heating degree days 27 21  
Since 1 July heating degree days 0 0  
Cooling Degree Days 9 13  
Month to date cooling degree days 266 242  
Year to date cooling degree days 576 526  
Since 1 June cooling degree days 502 467  
Growing Degree Days 25 (Base 50)    
Moisture  
Dew Point 62 °F    
Average Humidity 67    
Maximum Humidity 84    
Minimum Humidity 49    
Precipitation  
Precipitation 0.01 in 0.09 in 2.14 in (1897)
Month to date precipitation 0.28 2.63  
Year to date precipitation 13.32 16.25  
Snow  
Snow 0.00 in 0.00 in - ()
Month to date snowfall 0.0 0.0  
Since 1 June snowfall 0.0 0.0  
Since 1 July snowfall 0.0 0.0  
Snow Depth 0.00 in    
Sea Level Pressure  
Sea Level Pressure 29.92 in    
Wind  
Wind Speed 7 mph (ESE)    
Max Wind Speed 20 mph    
Max Gust Speed 28 mph    
Visibility 10 miles    
Events Thunderstorm    
T = Trace of Precipitation, MM = Missing Value Source: NWS Daily Summary

Daily Weather History Graph

Daily Weather History Graph

Search for Another Location

Airport or City:

Trip Planner

Search our weather history database for the weather conditions in past years. The results will help you decide how hot, cold, wet, or windy it might be!

Date:

Astronomy

Jul. 20, 2013 Rise Set
Actual Time 6:20 AM CDT 8:59 PM CDT
Civil Twilight 5:48 AM CDT 9:31 PM CDT
Nautical Twilight 5:08 AM CDT 10:11 PM CDT
Astronomical Twilight 4:23 AM CDT 10:55 PM CDT
Moon 7:04 PM CDT (7/20) 4:01 AM CDT (7/20)
Length of Visible Light 15h 43m
Length of Day
14h 39m
Waxing Gibbous, 94% of the Moon is Illuminated
Jul 20
Waxing Gibbous
Jul 22
Full
Jul 29
Last Quarter
Aug 6
New
Aug 14
First Quarter

Hourly Weather History & Observations

Time (CDT) Temp. Heat Index Dew Point Humidity Pressure Visibility Wind Dir Wind Speed Gust Speed Precip Events Conditions
12:53 AM 72.0 °F - 64.0 °F 76% 29.94 in 10.0 mi Calm Calm - N/A   Clear
1:53 AM 71.1 °F - 66.0 °F 84% 29.94 in 10.0 mi Calm Calm - N/A   Clear
2:53 AM 71.1 °F - 64.0 °F 78% 29.93 in 10.0 mi Calm Calm - N/A   Clear
3:53 AM 69.1 °F - 64.0 °F 84% 29.93 in 10.0 mi Calm Calm - N/A   Clear
4:53 AM 70.0 °F - 64.0 °F 81% 29.91 in 10.0 mi East 4.6 mph - N/A   Clear
5:53 AM 68.0 °F - 62.1 °F 81% 29.91 in 10.0 mi Calm Calm - N/A   Clear
6:53 AM 68.0 °F - 62.1 °F 81% 29.92 in 10.0 mi East 5.8 mph - N/A   Clear
7:53 AM 75.0 °F - 60.1 °F 60% 29.93 in 10.0 mi Calm Calm - N/A   Clear
8:53 AM 77.0 °F - 57.0 °F 50% 29.91 in 10.0 mi SSE 9.2 mph - N/A   Clear
9:53 AM 80.1 °F 80.7 °F 59.0 °F 48% 29.93 in 10.0 mi East 6.9 mph - N/A   Partly Cloudy
10:53 AM 77.0 °F - 63.0 °F 62% 29.95 in 10.0 mi NE 12.7 mph - N/A   Overcast
11:53 AM 73.9 °F - 62.1 °F 66% 29.97 in 10.0 mi ENE 12.7 mph - N/A Thunderstorm Mostly Cloudy
12:10 PM 73.4 °F - 60.8 °F 65% 30.01 in 10.0 mi NE 11.5 mph - N/A   Overcast
12:53 PM 75.0 °F - 62.1 °F 64% 29.97 in 10.0 mi ENE 12.7 mph - N/A   Overcast
1:53 PM 75.0 °F - 64.9 °F 71% 29.95 in 10.0 mi East 12.7 mph 19.6 mph 0.01 in   Mostly Cloudy
2:53 PM 79.0 °F - 63.0 °F 58% 29.91 in 10.0 mi East 12.7 mph 20.7 mph N/A   Partly Cloudy
3:53 PM 81.0 °F 82.2 °F 63.0 °F 54% 29.91 in 10.0 mi East 10.4 mph - N/A   Partly Cloudy
4:53 PM 81.0 °F 82.2 °F 63.0 °F 54% 29.88 in 10.0 mi East 9.2 mph - N/A   Scattered Clouds
5:53 PM 82.9 °F 84.0 °F 63.0 °F 51% 29.88 in 10.0 mi SSE 11.5 mph 23.0 mph N/A   Clear
6:53 PM 79.0 °F - 61.0 °F 54% 29.86 in 10.0 mi SE 19.6 mph 25.3 mph N/A   Clear
7:53 PM 77.0 °F - 61.0 °F 58% 29.86 in 10.0 mi SE 10.4 mph - N/A   Clear
8:53 PM 73.9 °F - 62.1 °F 66% 29.86 in 10.0 mi SE 5.8 mph - N/A   Clear
9:53 PM 72.0 °F - 62.1 °F 71% 29.89 in 10.0 mi SE 6.9 mph - N/A   Clear
10:53 PM 72.0 °F - 62.1 °F 71% 29.91 in 10.0 mi SSE 4.6 mph - N/A   Clear
11:53 PM 71.1 °F - 63.0 °F 75% 29.92 in 10.0 mi Calm Calm - N/A   Clear